Regional Weather Roundup
Issued by NWS

Home | Current Version | Previous Version | Graphics & Text | Print | Product List | Glossary Off
Versions: 1 2 3 4 5 6 7 8 9 10 11 12 13 14 15 16 17 18 19 20 21 22 23 24 25 26 27 28 29 30 31 32 33 34 35 36 37 38 39 40 41 42 43 44 45 46 47 48 49 50

000
ASUS43 KMKX 211511
RWRWI

WISCONSIN REGIONAL WEATHER ROUNDUP
NATIONAL WEATHER SERVICE MILWAUKEE/SULLIVAN WI
1000 AM CDT TUE OCT 21 2014

NOTE: "FAIR" INDICATES FEW OR NO CLOUDS BELOW 12,000 FEET WITH NO
SIGNIFICANT WEATHER AND/OR OBSTRUCTIONS TO VISIBILITY.

WIZ001-002-006>008-014>016-023>028-211600-
NORTHWEST WISCONSIN

CITY           SKY/WX    TMP DP  RH WIND       PRES   REMARKS
SUPERIOR ARPT  CLOUDY    44  35  72 SE7       30.26R
ASHLAND        CLOUDY    42  35  76 E7        30.27R
HAYWARD        CLOUDY    42  34  73 E8        30.24R
SIREN          MOSUNNY   47  35  63 SE9       30.23R
CUMBERLAND     MOSUNNY   43  34  70 SE7       30.23R
RICE LAKE      SUNNY     45  34  66 E6        30.24R
CHETEK         CLOUDY    44  35  71 E12       30.24R
LADYSMITH      CLOUDY    43  35  75 E7        30.25R
EAU CLAIRE     CLOUDY    43  36  76 SE7       30.23R
MENOMONIE      SUNNY     45  37  73 E9        30.24R
NEW RICHMOND   SUNNY     45  37  73 E9        30.22S
OSCEOLA        SUNNY     46  40  81 SE12      30.25S
$$

WIZ003>005-009-010-017-018-211600-
NORTH CENTRAL WISCONSIN

CITY           SKY/WX    TMP DP  RH WIND       PRES   REMARKS
MANITOWISH WTR CLOUDY    37  35  93 E6        30.24R WCI  32
ARBOR VITAE    CLOUDY    39  36  87 NE6       30.24R WCI  35
WOODRUFF       CLOUDY    39  36  87 NE6       30.24R WCI  35
RHINELANDER    CLOUDY    37  34  89 VRB5      30.25R WCI  33
EAGLE RIVER    CLOUDY    38  33  82 E9        30.24R WCI  32
LAND O LAKES   CLOUDY    38  34  87 E7        30.25R WCI  33
PHILLIPS       CLOUDY    39  34  82 NE10      30.23R WCI  32
TOMAHAWK       CLOUDY    39  34  80 CALM      30.24S
MEDFORD        PTSUNNY   41  34  75 E8        30.22S
MERRILL        CLOUDY    40  34  78 E7        30.25R
$$

WIZ029-030-035-036-043>047-211600-
CENTRAL WISCONSIN

CITY           SKY/WX    TMP DP  RH WIND       PRES   REMARKS
WAUSAU         CLOUDY    42  34  73 E7        30.23R
MOSINEE        CLOUDY    43  37  81 NE6       30.24R
MARSHFIELD     CLOUDY    43  35  73 E12       30.22R
STEVENS POINT  CLOUDY    42  34  74 NE8       30.24R
WAUPACA        CLOUDY    46  36  69 N8        30.24R
WAUTOMA        CLOUDY    44  37  76 NE7       30.24R
WISC RAPIDS    CLOUDY    44  35  70 E12       30.25R
CAMP DOUGLAS   MOSUNNY   46  39  76 NE8       30.23R
$$

WIZ011>013-019>022-031-037>040-048>050-211600-
NORTHEAST WISCONSIN

CITY           SKY/WX    TMP DP  RH WIND       PRES   REMARKS
ANTIGO         CLOUDY    40  35  82 NE12      30.24R WCI  33
SHAWANO        CLOUDY    45  36  69 NE12      30.25R
OCONTO         PTSUNNY   44  34  68 N14G21    30.23R
STURGEON BAY   PTSUNNY   46  34  61 NE13G22   30.22R
GREEN BAY      CLOUDY    45  37  73 N13       30.23R
MANITOWOC      CLOUDY    46  37  71 N10       30.20R
APPLETON       CLOUDY    43  36  75 N14       30.23R
CLINTONVILLE   CLOUDY    43  34  70 NE12      30.24R
OSHKOSH        CLOUDY    44  37  76 N10       30.22R
$$

WIZ032>034-041-042-053>061-211600-
SOUTHWEST WISCONSIN

CITY           SKY/WX    TMP DP  RH WIND       PRES   REMARKS
LA CROSSE      SUNNY     47  37  68 E7        30.23R
SPARTA         PTSUNNY   44  36  73 E9        30.24R
VIROQUA        SUNNY     45  37  76 E8        30.22R
BOSCOBEL       SUNNY     45  39  79 NE8       30.23S
PRAIRIE DU CHI MOSUNNY   42  41  95 E3        30.23R
PLATTEVILLE    SUNNY     47  41  79 NE8       30.21R
$$

WIZ056-057-062-063-064-067-068-211600-
SOUTH CENTRAL WISCONSIN

CITY           SKY/WX    TMP DP  RH WIND       PRES   REMARKS
REEDSBURG      CLOUDY    44  37  74 NE3       30.23R
BARABOO/DELLS  CLOUDY    44  36  73 E6        30.22S
LONE ROCK      SUNNY     50  37  61 NE9       30.23R
MINERAL POINT  SUNNY     46  37  71 NE9G16    30.21R
MADISON        PTSUNNY   46  38  73 NE10      30.22R
MIDDLETON      PTSUNNY   47  36  64 NE12      30.22R
WATERTOWN      CLOUDY    45  37  76 NE12      30.21R
MONROE         MOSUNNY   45  37  76 NE14G20   30.20R
JANESVILLE     PTSUNNY   48  37  66 NE13      30.19R
$$

WIZ051-052-058>065-066-070>072-211600-
SOUTHEAST WISCONSIN

CITY           SKY/WX    TMP DP  RH WIND       PRES   REMARKS
MILWAUKEE      CLOUDY    48  39  71 N13       30.18R
WAUKESHA       CLOUDY    45  37  76 N10       30.19R
MILWAUKEE/TIMM CLOUDY    46  37  71 N12       30.19R
RACINE         CLOUDY    48  40  73 N16       30.19R
BURLINGTON     PTSUNNY   47  38  71 N7        30.18R
KENOSHA        CLOUDY    49  40  71 N9        30.17R
FOND DU LAC    CLOUDY    45  37  73 N12       30.22R
SHEBOYGAN      CLOUDY    45  38  76 N9        30.19R
WEST BEND      CLOUDY    45  36  70 N9        30.20R
JUNEAU         CLOUDY    44  37  76 N10       30.22R
$$

LSZ147-162-211600-
LAKE SUPERIOR

STATION/POSITION TIME  TEMP    WIND        PRES    WAVE
                       AIR SEA DIR/SP/G            HT/PER
                 (UTC) (F)     (DEG/KT/KT) (MB)    (FT/S)
W MID LAKE BUOY  1450   41 46   90/ 10/ 14 1026.1R   3/ 7
DEVILS ISLAND    1500   42     110/ 11/ 13 1025.9R
PORT WING        1300   44      60/  7/ 10 1024.4
SAXON HARBOR     1300   43     100/  4/ 13 1024.0R
$$

LMZ867-665-643>646-211600-
LAKE MICHIGAN

STATION/POSITION TIME  TEMP    WIND        PRES    WAVE
                       AIR SEA DIR/SP/G            HT/PER
                 (UTC) (F)     (DEG/KT/KT) (MB)    (FT/S)
CHAMBERS ISLAND  1300   45     340/ 19/ 23 1022.4R
N MID LAKE BUOY  1450   44 51   20/ 16/ 21 1022.7R   4/ 5
NORTHPORT PIER   1300   45     360/ 12/ 16 1022.0R
SISTER BAY       1343           20/ 14/ 17   N/A
KEWAUNEE LAKESHO 1400   45      10/ 10/ 19 1021.2R
SHEBOYGAN LAKESH 1500   46 49  360/ 18/ 20 1022.9R
PORT WASHINGTON  1340   47     340/  7/ 12 1022.0R
ATWATER BUOY     1500   48     360/ 17/ 21 1022.9R
MILWAUKEE LAKESH 1400   47     340/ 11/ 18   N/A
S MID LAKE BUOY  1450   51 54   10/ 19/ 23 1020.1R   6/ 7
KENOSHA   LAKESH 1500   48     350/ 16/ 20 1021.3R
$$

TC  - TEMPERATURE IN CELSIUS
VSB - VISIBILITY IN STATUTE MILES
WCI - WIND CHILL INDEX
HX  - HEAT INDEX



USA.gov is the U.S. government's official web portal to all federal, state and local government web resources and services.